Simultaneous Nadir Overpasses (SNOs) Predictions

Prediction of SNOs between GOES-17 and METOP-C Satellite Orbit:

Table of predicted SNOs for the next 14.0 days since TLE Epoch: 4/17/2020
Index Date Time (GOES-17) GOES-17 Lat,Lon METOP-C Lat,Lon Distance(km) Time Diff (sec)
1 04/18/2020 18:54:52 0.03,-137.20 0.89,-141.03 437.40 80
2 04/19/2020 18:36:53 0.03,-137.20 -0.20,-136.03 131.80 80
3 04/21/2020 06:55:54 -0.03,-137.18 -0.82,-140.63 394.01 80
4 04/22/2020 06:32:35 -0.03,-137.18 0.33,-135.65 174.81 80
5 04/23/2020 18:51:27 0.03,-137.19 0.71,-140.20 343.77 80
6 04/24/2020 18:33:27 0.03,-137.18 -0.39,-135.21 224.63 80
7 04/26/2020 06:52:29 -0.03,-137.15 -0.64,-139.81 302.66 80
8 04/27/2020 06:29:10 -0.02,-137.14 0.51,-134.82 265.04 80
9 04/28/2020 18:48:01 0.02,-137.14 0.51,-139.38 255.33 80
10 04/29/2020 18:30:02 0.02,-137.12 -0.58,-134.38 311.90 80
11 05/01/2020 06:49:03 -0.01,-137.08 -0.45,-138.98 216.96 80




NCC Satellite Simultaneous Nadir Overpasses (SNOs) Prediction Service
